TimeMST,TemperatureF,Dew PointF,Humidity,Sea Level PressureIn,VisibilityMPH,Wind Direction,Wind SpeedMPH,Gust SpeedMPH,PrecipitationIn,Events,Conditions,WindDirDegrees,DateUTC
12:53 AM,36.0,26.1,67,29.81,10.0,WNW,3.5,-,N/A,,Clear,300,2013-03-03 07:53:00
1:53 AM,36.0,25.0,64,29.79,10.0,NNW,8.1,-,N/A,,Clear,330,2013-03-03 08:53:00
2:53 AM,37.0,25.0,62,29.77,10.0,NW,5.8,-,N/A,,Overcast,310,2013-03-03 09:53:00
3:53 AM,37.0,24.1,59,29.74,10.0,WSW,4.6,-,N/A,,Clear,250,2013-03-03 10:53:00
4:53 AM,37.0,24.1,59,29.73,10.0,WNW,5.8,-,N/A,,Clear,290,2013-03-03 11:53:00
5:53 AM,36.0,24.1,62,29.75,10.0,WSW,8.1,-,N/A,,Mostly Cloudy,250,2013-03-03 12:53:00
6:53 AM,41.0,21.9,47,29.74,10.0,South,3.5,-,N/A,,Overcast,180,2013-03-03 13:53:00
7:53 AM,39.9,24.1,53,29.72,10.0,SSW,4.6,-,N/A,,Overcast,200,2013-03-03 14:53:00
8:53 AM,41.0,26.1,55,29.71,10.0,SSW,6.9,-,N/A,,Overcast,210,2013-03-03 15:53:00
9:53 AM,42.1,28.0,58,29.67,10.0,Calm,Calm,-,N/A,,Overcast,0,2013-03-03 16:53:00
10:53 AM,44.1,27.0,51,29.65,10.0,Calm,Calm,-,N/A,,Mostly Cloudy,0,2013-03-03 17:53:00
11:53 AM,48.0,28.0,46,29.62,10.0,SSE,4.6,-,N/A,,Mostly Cloudy,150,2013-03-03 18:53:00
12:53 PM,48.0,27.0,44,29.57,10.0,SSE,4.6,-,N/A,,Clear,150,2013-03-03 19:53:00
1:53 PM,48.0,28.9,48,29.55,10.0,East,5.8,-,N/A,,Partly Cloudy,100,2013-03-03 20:53:00
2:53 PM,53.1,30.0,41,29.52,10.0,North,5.8,-,N/A,,Overcast,360,2013-03-03 21:53:00
3:53 PM,50.0,28.0,43,29.51,10.0,West,16.1,-,N/A,,Scattered Clouds,270,2013-03-03 22:53:00
4:53 PM,48.9,28.9,46,29.49,10.0,SW,6.9,-,N/A,,Clear,230,2013-03-03 23:53:00
5:24 PM,33.8,26.6,75,29.59,10.0,NNW,42.6,65.6,N/A,,Squalls,340,2013-03-04 00:24:00
5:36 PM,32.0,26.6,80,29.61,10.0,NNW,44.9,65.6,N/A,,Partly Cloudy,330,2013-03-04 00:36:00
5:53 PM,30.9,24.1,76,29.66,10.0,NNW,39.1,61.0,N/A,,Mostly Cloudy,330,2013-03-04 00:53:00
6:27 PM,28.4,24.8,86,29.63,9.0,NNW,36.8,49.5,N/A,,Partly Cloudy,330,2013-03-04 01:27:00
6:48 PM,26.6,24.8,93,29.64,3.0,NNW,35.7,55.2,0.00,Snow,Light Snow,330,2013-03-04 01:48:00
6:53 PM,27.0,24.1,89,29.69,3.0,NNW,33.4,51.8,0.00,Snow,Light Snow,330,2013-03-04 01:53:00
7:03 PM,26.6,24.8,93,29.66,2.5,NNW,29.9,50.6,0.00,Snow,Light Snow,330,2013-03-04 02:03:00
7:13 PM,26.6,23.0,86,29.65,3.0,NNW,39.1,51.8,0.00,Snow,Light Snow,330,2013-03-04 02:13:00
7:20 PM,26.6,23.0,86,29.67,2.5,NNW,32.2,51.8,0.00,Snow,Light Snow,330,2013-03-04 02:20:00
7:27 PM,26.6,23.0,86,29.66,1.8,NNW,35.7,49.5,0.00,Snow,Light Snow,330,2013-03-04 02:27:00
7:42 PM,26.6,23.0,86,29.67,1.0,NNW,34.5,46.0,0.00,Snow,Light Snow,340,2013-03-04 02:42:00
7:53 PM,26.1,23.0,88,29.72,1.0,NNW,31.1,42.6,0.00,Snow,Light Snow,340,2013-03-04 02:53:00
8:09 PM,26.6,23.0,86,29.68,1.2,NNW,35.7,54.1,0.00,Snow,Light Snow,330,2013-03-04 03:09:00
8:21 PM,26.6,21.2,80,29.67,3.0,NNW,40.3,57.5,0.00,Snow,Light Snow,330,2013-03-04 03:21:00
8:27 PM,26.6,21.2,80,29.66,2.5,NNW,40.3,54.1,0.00,Snow,Light Snow,330,2013-03-04 03:27:00
8:53 PM,25.0,21.0,85,29.73,2.5,NNW,38.0,52.9,0.00,Snow,Light Snow,340,2013-03-04 03:53:00
9:01 PM,26.6,19.4,74,29.69,8.0,NNW,35.7,48.3,0.00,Snow,Light Snow,330,2013-03-04 04:01:00
9:10 PM,26.6,19.4,74,29.70,9.0,NNW,39.1,51.8,0.00,Snow,Light Snow,330,2013-03-04 04:10:00
9:53 PM,27.0,19.0,72,29.76,9.0,NNW,32.2,42.6,0.00,,Overcast,330,2013-03-04 04:53:00
10:53 PM,28.0,17.1,63,29.80,10.0,NNW,23.0,34.5,0.00,,Overcast,330,2013-03-04 05:53:00
11:53 PM,28.9,12.9,51,29.77,10.0,NNW,18.4,29.9,N/A,,Overcast,330,2013-03-04 06:53:00